Flag for U.S.A. Weather past 2 weeks in Fort Myers, Florida, U.S.A.

Now
76 °F

Mostly cloudy.


Feels Like: 76 °F
Forecast: 62 / 71 °F
Wind: 9 mph from Southwest

Location: Page Field

Current Time: Dec 24, 2014 at 11:23:30 PM

Latest Report: Dec 24, 2014 at 9:53 PM


Visibility: 10 mi

Pressure: 29.94 "Hg

Humidity: 91%

Dew point: 73 °F

Location of Fort MyersLocation

Historic Weather in Fort Myers — Graph

°F

Fort Myers temperature yesterday

Maximum temperature yesterday: 83 °F (at 12:53 PM)
Minimum temperature yesterday: 68 °F (at 12:53 AM)
Average temperature yesterday: 74 °F

Past Weeks' High & Low Weather Summary

 TemperatureHumidityPressure
High83 °F (Dec 23, 12:53 PM)100% (Dec 23, 12:53 AM)30.28 "Hg (Dec 23, 12:53 AM)
Low46 °F (Dec 15, 5:53 AM)21% (Dec 13, 2:53 PM)29.87 "Hg (Dec 24, 3:53 PM)
Average64 °F73%30.08 "Hg
* Reported Dec 9 9:53 PM — Dec 24 9:53 PM, Fort Myers, Weather by CustomWeather, © 2014

Note: Actual official high and low records may vary slightly from our data, if they occured in-between our weather recording intervals... More about our weather records

Advertising

Fort Myers weather history for previous 24 hours

 ConditionsComfort  
Time TempWeatherWind HumidityBarometerVisibility
9:53 PM
Dec 24
76 °FMostly cloudy.9 mph91%29.94 "Hg10 mi
8:53 PM76 °FPassing clouds.9 mph88%29.93 "Hg10 mi
7:53 PM77 °FClear.8 mph82%29.91 "Hg10 mi
6:53 PM78 °FOvercast.12 mph82%29.91 "Hg10 mi
5:53 PM78 °FPassing clouds.12 mph82%29.88 "Hg10 mi
4:53 PM79 °FMore clouds than sun.13 mph79%29.87 "Hg10 mi
3:53 PM79 °FPartly sunny.14 mph79%29.87 "Hg10 mi
2:53 PM80 °FPartly sunny.15 mph76%29.89 "Hg10 mi
1:53 PM81 °FScattered clouds.16 mph72%29.88 "Hg10 mi
12:53 PM81 °FScattered clouds.14 mph72%29.89 "Hg10 mi
11:53 AM82 °FPassing clouds.16 mph67%29.91 "Hg10 mi
10:53 AM83 °FPartly sunny.17 mph65%29.93 "Hg10 mi
9:53 AM79 °FSunny.13 mph79%29.93 "Hg10 mi
8:53 AM75 °FPartly sunny.10 mph88%29.92 "Hg10 mi
7:53 AM72 °FSunny.10 mph93%29.89 "Hg10 mi
6:53 AM72 °FClear.9 mph93%29.88 "Hg10 mi
5:53 AM73 °FPassing clouds.13 mph90%29.88 "Hg10 mi
4:53 AM73 °FPassing clouds.10 mph94%29.88 "Hg10 mi
3:53 AM73 °FPassing clouds.10 mph90%29.87 "Hg10 mi
2:53 AM73 °FPassing clouds.10 mph90%29.90 "Hg10 mi
1:53 AM73 °FPassing clouds.9 mph88%29.90 "Hg10 mi
12:53 AM73 °FClear.8 mph88%29.90 "Hg10 mi
11:53 PM
Dec 23
73 °FClear.8 mph88%29.90 "Hg10 mi
Weather by CustomWeather, © 2014

See weather overviewHow to use our weather pages